User: anonymous   Login
Location: Unspecified
(0.0000°N, 0.0000°E)
Time: 00:52:37
(UTC+00:00)
Language:

DELFI-N3XT - Orbit

View from above orbital plane
View from above orbital plane
View from above satellite
View from above satellite

Ground track
Ground track

The orbit data is extracted from the following two-line orbital elements,

1 39420U 13066E   21023.58497447  .00000127  00000-0  30659-4 0  9997
2 39420  97.7997 323.6812 0137287 169.5947 190.8149 14.62494655382733
Epoch (UTC): 23 January 2021 14:02:21
Eccentricity: 0.0137287
inclination: 97.7997°
perigee height: 588 km
apogee height: 782 km
right ascension of ascending node: 323.6812°
argument of perigee: 169.5947°
revolutions per day: 14.62494655
mean anomaly at epoch: 190.8149°
orbit number at epoch: 38273

The dashed part of the orbit path shows where the satellite is in the earth's shadow,  

DLR